Weather in Vorozhba

Ukraine / Sumi District     50°42′50″N   34°38′01″E
temp.,
°C
wind,
m/s
gust,
m/s
humid.,
%
clouds,
%
prec.,
mm/h
press.,
hPa
HPBL,
m
26 october, tue
tue2600:00+1ssw22660 0.0 103417
03:000sw22705 0.0 103429
06:00−1ssw33755 0.0 103354
09:00+1ssw366575 0.0 1033177
12:00+6ssw564237 0.0 1032638
15:00+9sw57365 0.0 1029836
18:00+5ssw374740 0.0 1029121
21:00+3ssw395452 0.0 1029170
27 october, wed
wed2700:00+2ssw3105531 0.0 1028193
03:00+1ssw3105556 0.0 1028184
06:00+1ssw4125657 0.0 1027225
09:00+3ssw513625 0.0 1026363
12:00+8sw711574 0.0 1024723
15:00+10wsw795978 0.0 10221095
18:00+9wsw496454 0.0 1022429
21:00+5w377898 0.0 1023127
28 october, thu
thu2800:00+5w3581100 0.0 1023100
03:00+4wsw3790100 0.0 1022128
06:00+5wsw31089100 0.0 1022233
09:00+7sw51384100 0.0 1021357
12:00+11w7126999 0.0 1020671
15:00+12w61171100 0.0 1019845
18:00+10wnw51182100 0.0 1019561
21:00+10wnw51188100 0.1 1020485
29 october, fri
fri2900:00+10wnw498593 0.0 1021324
03:00+8nnw599323 0.0 1023299
06:00+6n37955 0.0 1025157
09:00+7nne38895 0.0 1028308
12:00+10ene456222 0.0 1029921
15:00+11e33535 0.0 1030955
18:00+8e33635 0.0 103133
21:00+6ese34675 0.0 103265
30 october, sat
sat3000:00+5se35705 0.0 103392
03:00+4se36735 0.0 1034110
06:00+3se35747 0.0 103481
09:00+4sse37685 0.0 1035189
12:00+10s57465 0.0 1035562
15:00+12s46365 0.0 1033763
18:00+7sse35465 0.0 103371
21:00+6s37495 0.0 1034115